Regional Weather Roundup
Issued by NWS Little Rock, AR

Home | Current Version | Previous Version | Graphics & Text | Print | Product List | Glossary On
Versions: 1 2 3 4 5 6 7 8 9 10 11 12 13 14 15 16 17 18 19 20 21 22 23 24 25 26 27
000
ASUS44 KLZK 272305
RWRLZK

WEATHER ROUNDUP FOR ARKANSAS
NATIONAL WEATHER SERVICE LITTLE ROCK AR
600 PM CDT WED JUL 27 2016

NOTE: "FAIR" INDICATES FEW OR NO CLOUDS BELOW 12,000 FEET WITH NO
SIGNIFICANT WEATHER AND/OR OBSTRUCTIONS TO VISIBILITY.

ARZ001-003-010-029-280000-
NORTHWEST ARKANSAS

CITY           SKY/WX    TMP DP  RH WIND       PRES   REMARKS
FAYETTEVILLE   CLOUDY    83  75  77 W5        29.93F HX  90
FORT SMITH     CLOUDY    85  73  67 S5        29.89F HX  91
HARRISON       PTSUNNY   84  74  71 NW6       29.94F HX  91
BENTONVILLE    CLOUDY    86  72  62 SW6       29.94S HX  92
ROGERS         LGT RAIN  83  74  74 SW12      29.95S HX  89
SILOAM SPGS    SUNNY     86  66  51 S7        29.95S HX  88
HIGHFILL       SUNNY     86  76  71 SW7       29.93F HX  96
SPRINGDALE     MOSUNNY   86  72  62 S6        29.95F HX  92
$$

ARZ004-005-016-280000-
NORTH CENTRAL ARKANSAS

CITY           SKY/WX    TMP DP  RH WIND       PRES   REMARKS
BATESVILLE     CLOUDY    75  72  88 SW7       29.92F
FLIPPIN        MOSUNNY   90  70  51 W14       29.89S THUNDER HX  95
MTN HOME       MOSUNNY   90  73  57 SE5       29.92R HX  98
$$

ARZ040-041-280000-
WEST CENTRAL ARKANSAS

CITY           SKY/WX    TMP DP  RH WIND       PRES   REMARKS
MENA             N/A    N/A N/A N/A MISG        N/A
MOUNT IDA      CLOUDY    80  76  87 CALM      29.92F HX  86
$$

ARZ009-017-025-026-028-280000-
NORTHEAST ARKANSAS

CITY           SKY/WX    TMP DP  RH WIND       PRES   REMARKS
CORNING          N/A     81  77  89 SW12      29.89F HX  88
JONESBORO      LGT RAIN  78  76  93 W7        29.90F
NEWPORT        LGT RAIN  77  77 100 W8        29.91F
WALNUT RIDGE   CLOUDY    75  72  88 CALM      29.89F
BLYTHEVILLE    TSTM      78  74  87 N5        29.90R FOG
$$

ARZ022-023-033-042-044-280000-
CENTRAL ARKANSAS

CITY           SKY/WX    TMP DP  RH WIND       PRES   REMARKS
LITTLE ROCK    LGT RAIN  80  74  81 N5        29.91F HX  85
N LITTLE ROCK    N/A     76  74  93 CALM      29.88F
JACKSONVILLE   LGT RAIN  75  75 100 CALM      29.90F
SEARCY         RAIN      76  75  97 NW3       29.93F
HOT SPRINGS    CLOUDY    78  75  90 SE5       29.93F
RUSSELLVILLE   CLOUDY    82  74  76 SW6       29.90F HX  88
$$

ARZ036-280000-
EAST ARKANSAS

CITY           SKY/WX    TMP DP  RH WIND       PRES   REMARKS
WEST MEMPHIS   TSTM      76  74  93 SE21      29.91R FOG
$$

ARZ050-053-066-070-073-280000-
SOUTHWEST ARKANSAS

CITY           SKY/WX    TMP DP  RH WIND       PRES   REMARKS
ARKADELPHIA    LGT RAIN  78  72  81 N5        29.93S
CAMDEN         CLOUDY    82  75  78 CALM      29.91F HX  89
TEXARKANA      LGT RAIN  78  72  81 W5        29.95R
EL DORADO      PTSUNNY   85  73  67 W3        29.93S HX  91
DE QUEEN       CLOUDY    78  75  90 S3        29.92R
$$

ARZ056-057-069-280000-
SOUTHEAST ARKANSAS

CITY           SKY/WX    TMP DP  RH WIND       PRES   REMARKS
PINE BLUFF     CLOUDY    76  71  85 NW6       29.92S
STUTTGART      CLOUDY    75  70  83 NW6       29.90F
MONTICELLO     RAIN      78  75  90 NW6       29.92R FOG

$$






USA.gov is the U.S. government's official web portal to all federal, state and local government web resources and services.